| time (UTC) | temp F | wind direction | speed MPH | gust MPH | rain 1hr in | rain 24hr in | rain mn in | humidity % | barometer mb |
| 20260507083500 | 58 | 348 | 5.0 | 14.0 | 0.00 | 0.03 | 0.03 | 87 | 1010.1 |
| 20260507083000 | 58 | 329 | 5.0 | 14.0 | 0.00 | 0.03 | 0.03 | 87 | 1009.8 |
| 20260507082459 | 58 | 335 | 6.0 | 17.0 | 0.00 | 0.03 | 0.03 | 87 | 1009.8 |
| 20260507082000 | 58 | 329 | 7.0 | 17.0 | 0.00 | 0.03 | 0.03 | 87 | 1009.9 |
| 20260507081459 | 58 | 355 | 7.0 | 20.0 | 0.00 | 0.03 | 0.03 | 88 | 1009.7 |
| 20260507081001 | 58 | 5 | 7.0 | 20.0 | 0.00 | 0.03 | 0.03 | 88 | 1009.7 |
| 20260507080501 | 59 | 342 | 6.0 | 16.0 | 0.01 | 0.03 | 0.03 | 88 | 1009.5 |
| 20260507080000 | 59 | 355 | 6.0 | 16.0 | 0.01 | 0.03 | 0.03 | 89 | 1009.3 |
| 20260507075456 | 59 | 342 | 5.0 | 13.0 | 0.01 | 0.03 | 0.03 | 89 | 1008.9 |
| 20260507074958 | 59 | 325 | 4.0 | 12.0 | 0.02 | 0.03 | 0.03 | 90 | 1008.8 |
| 20260507074457 | 60 | 342 | 3.0 | 11.0 | 0.02 | 0.03 | 0.03 | 90 | 1008.7 |
| 20260507073956 | 60 | 91 | 2.0 | 6.0 | 0.02 | 0.03 | 0.03 | 90 | 1008.5 |
| 20260507072456 | 60 | 64 | 2.0 | 6.0 | 0.03 | 0.03 | 0.03 | 90 | 1008.7 |
| 20260507071957 | 60 | 349 | 2.0 | 6.0 | 0.03 | 0.03 | 0.03 | 89 | 1008.3 |
| 20260507071456 | 60 | 37 | 3.0 | 9.0 | 0.03 | 0.03 | 0.03 | 89 | 1008.2 |
| 20260507070456 | 61 | 68 | 6.0 | 17.0 | 0.02 | 0.02 | 0.02 | 87 | 1008.5 |
| 20260507070000 | 62 | 22 | 7.0 | 17.0 | 0.02 | 0.02 | 0.02 | 87 | 1008.7 |
| 20260507064958 | 65 | 333 | 2.0 | 6.0 | 0.01 | 0.01 | 0.01 | 89 | 1008.8 |
| 20260507064457 | 65 | 336 | 2.0 | 5.0 | 0.01 | 0.01 | 0.01 | 88 | 1008.8 |
| 20260507062957 | 65 | 263 | 1.0 | 2.0 | 0.00 | 0.00 | 0.00 | 87 | 1008.4 |
| 20260507062456 | 65 | 263 | 1.0 | 2.0 | 0.00 | 0.00 | 0.00 | 87 | 1008.3 |
| 20260507061956 | 65 | 262 | 1.0 | 3.0 | 0.00 | 0.00 | 0.00 | 86 | 1008.4 |
| 20260507061457 | 65 | 251 | 0.0 | 2.0 | 0.00 | 0.00 | 0.00 | 85 | 1008.3 |
| 20260507060957 | 66 | 251 | 0.0 | 2.0 | 0.00 | 0.00 | 0.00 | 84 | 1008.3 |
| 20260507060455 | 66 | 251 | 0.0 | 3.0 | 0.00 | 0.00 | 0.00 | 84 | 1008.3 |
| 20260507055957 | 66 | 251 | 0.0 | 3.0 | 0.00 | 0.00 | 0.00 | 83 | 1008.4 |
| 20260507055455 | 66 | 251 | 0.0 | 3.0 | 0.00 | 0.00 | 0.00 | 83 | 1008.3 |
| 20260507054957 | 66 | 251 | 1.0 | 3.0 | 0.00 | 0.00 | 0.00 | 83 | 1008.2 |
| 20260507054455 | 66 | 251 | 1.0 | 3.0 | 0.00 | 0.00 | 0.00 | 83 | 1008.2 |
| 20260507053956 | 66 | 251 | 0.0 | 4.0 | 0.00 | 0.00 | 0.00 | 83 | 1008.2 |
| 20260507053457 | 66 | 251 | 1.0 | 5.0 | 0.00 | 0.00 | 0.00 | 83 | 1008.5 |
| 20260507052956 | 66 | 257 | 1.0 | 2.0 | 0.00 | 0.00 | 0.00 | 83 | 1008.6 |
| 20260507052456 | 67 | 257 | 1.0 | 2.0 | 0.00 | 0.00 | 0.00 | 83 | 1008.6 |
| 20260507051955 | 66 | 257 | 1.0 | 2.0 | 0.00 | 0.00 | 0.00 | 83 | 1008.7 |
| 20260507051457 | 66 | 257 | 1.0 | 2.0 | 0.00 | 0.00 | 0.00 | 83 | 1008.7 |
| 20260507050957 | 66 | 257 | 1.0 | 3.0 | 0.00 | 0.00 | 0.00 | 83 | 1008.7 |
| 20260507050455 | 66 | 257 | 1.0 | 3.0 | 0.00 | 0.00 | 0.00 | 83 | 1008.7 |
| 20260507045000 | 66 | 259 | 1.0 | 4.0 | 0.00 | 0.00 | 0.00 | 83 | 1008.8 |
| 20260507043959 | 66 | 262 | 1.0 | 4.0 | 0.00 | 0.00 | 0.00 | 83 | 1009.1 |
| 20260507043000 | 66 | 258 | 1.0 | 2.0 | 0.00 | 0.00 | 0.00 | 83 | 1008.9 |
| 20260507042459 | 66 | 258 | 1.0 | 2.0 | 0.00 | 0.00 | 0.00 | 83 | 1009.0 |
| 20260507042001 | 66 | 258 | 1.0 | 3.0 | 0.00 | 0.00 | 0.00 | 84 | 1009.0 |
| 20260507041000 | 65 | 258 | 0.0 | 3.0 | 0.00 | 0.00 | 0.00 | 84 | 1009.0 |
| 20260507040458 | 65 | 258 | 0.0 | 2.0 | 0.00 | 0.00 | 0.00 | 85 | 1008.9 |
| 20260507040001 | 65 | 258 | 0.0 | 2.0 | 0.00 | 0.00 | 0.00 | 85 | 1008.9 |
| 20260507035500 | 65 | 257 | 0.0 | 2.0 | 0.00 | 0.00 | 0.00 | 84 | 1008.9 |
| 20260507035000 | 65 | 257 | 0.0 | 2.0 | 0.00 | 0.00 | 0.00 | 84 | 1008.8 |
| 20260507034501 | 65 | 257 | 0.0 | 2.0 | 0.00 | 0.00 | 0.00 | 83 | 1008.7 |
| 20260507034001 | 65 | 257 | 0.0 | 3.0 | 0.00 | 0.00 | 0.00 | 83 | 1008.4 |
| 20260507033500 | 66 | 257 | 1.0 | 4.0 | 0.00 | 0.00 | 0.00 | 83 | 1008.4 |
| 20260507033000 | 66 | 257 | 1.0 | 4.0 | 0.00 | 0.00 | 0.00 | 82 | 1008.5 |
| 20260507032500 | 66 | 258 | 1.0 | 3.0 | 0.00 | 0.00 | 0.00 | 83 | 1008.8 |
| 20260507031459 | 66 | 259 | 1.0 | 4.0 | 0.00 | 0.00 | 0.00 | 82 | 1008.7 |
| 20260507031001 | 66 | 256 | 1.0 | 3.0 | 0.00 | 0.00 | 0.00 | 82 | 1008.7 |
| 20260507030500 | 66 | 256 | 1.0 | 3.0 | 0.00 | 0.00 | 0.00 | 82 | 1008.8 |
| 20260507025000 | 66 | 265 | 0.0 | 3.0 | 0.00 | 0.00 | 0.00 | 82 | 1008.7 |
| 20260507024501 | 66 | 265 | 1.0 | 3.0 | 0.00 | 0.00 | 0.00 | 82 | 1008.9 |
| 20260507024001 | 66 | 269 | 1.0 | 3.0 | 0.00 | 0.00 | 0.00 | 82 | 1008.9 |
| 20260507023500 | 66 | 269 | 0.0 | 3.0 | 0.00 | 0.00 | 0.00 | 82 | 1009.0 |
| 20260507022500 | 66 | 269 | 0.0 | 2.0 | 0.00 | 0.00 | 0.00 | 82 | 1009.1 |
| 20260507022002 | 66 | 269 | 0.0 | 2.0 | 0.00 | 0.00 | 0.00 | 82 | 1009.1 |
| 20260507021500 | 66 | 269 | 0.0 | 2.0 | 0.00 | 0.00 | 0.00 | 81 | 1009.1 |
| 20260507020459 | 67 | 269 | 0.0 | 2.0 | 0.00 | 0.00 | 0.00 | 81 | 1009.1 |
| 20260507015500 | 67 | 269 | 1.0 | 3.0 | 0.00 | 0.00 | 0.00 | 81 | 1009.5 |
| 20260507015002 | 67 | 269 | 1.0 | 4.0 | 0.00 | 0.00 | 0.00 | 81 | 1009.5 |
| 20260507014501 | 66 | 269 | 0.0 | 4.0 | 0.00 | 0.00 | 0.00 | 81 | 1009.5 |
| 20260507014000 | 67 | 269 | 1.0 | 2.0 | 0.00 | 0.00 | 0.00 | 81 | 1009.3 |
| 20260507013500 | 66 | 269 | 0.0 | 2.0 | 0.00 | 0.00 | 0.00 | 82 | 1009.3 |
| 20260507013000 | 66 | 269 | 0.0 | 2.0 | 0.00 | 0.00 | 0.00 | 81 | 1009.3 |
| 20260507011500 | 66 | 269 | 0.0 | 1.0 | 0.00 | 0.00 | 0.00 | 81 | 1009.3 |
| 20260507011001 | 66 | 269 | 0.0 | 2.0 | 0.00 | 0.00 | 0.00 | 81 | 1009.3 |
| 20260507010500 | 66 | 269 | 0.0 | 2.0 | 0.00 | 0.00 | 0.00 | 81 | 1009.4 |
| 20260507010001 | 66 | 269 | 0.0 | 1.0 | 0.00 | 0.00 | 0.00 | 80 | 1009.3 |
| 20260507005500 | 66 | 269 | 0.0 | 1.0 | 0.00 | 0.00 | 0.00 | 80 | 1009.2 |
| 20260507005000 | 67 | 269 | 0.0 | 1.0 | 0.00 | 0.00 | 0.00 | 79 | 1009.2 |
| 20260507004459 | 67 | 269 | 0.0 | 2.0 | 0.00 | 0.00 | 0.00 | 79 | 1009.1 |
| 20260507003500 | 67 | 269 | 0.0 | 1.0 | 0.00 | 0.00 | 0.00 | 77 | 1009.0 |
| 20260507003001 | 68 | 269 | 0.0 | 2.0 | 0.00 | 0.00 | 0.00 | 77 | 1009.1 |
| 20260507002459 | 68 | 269 | 0.0 | 2.0 | 0.00 | 0.00 | 0.00 | 77 | 1009.0 |
| 20260507002000 | 68 | 269 | 0.0 | 2.0 | 0.00 | 0.00 | 0.00 | 77 | 1008.8 |
| 20260507001500 | 68 | 269 | 0.0 | 1.0 | 0.00 | 0.00 | 0.00 | 76 | 1008.8 |
| 20260507001001 | 68 | 269 | 1.0 | 4.0 | 0.00 | 0.00 | 0.00 | 76 | 1008.7 |
| 20260507000459 | 69 | 268 | 0.0 | 3.0 | 0.00 | 0.00 | 0.00 | 76 | 1008.8 |
| 20260507000000 | 69 | 273 | 0.0 | 3.0 | 0.00 | 0.00 | 0.00 | 76 | 1008.6 |
| 20260506235501 | 69 | 273 | 0.0 | 3.0 | 0.00 | 0.00 | 0.00 | 76 | 1008.7 |
| 20260506235001 | 69 | 263 | 0.0 | 1.0 | 0.00 | 0.00 | 0.00 | 75 | 1008.6 |
| 20260506234000 | 70 | 263 | 1.0 | 4.0 | 0.00 | 0.00 | 0.00 | 74 | 1008.6 |
| 20260506233501 | 70 | 263 | 1.0 | 10.0 | 0.00 | 0.00 | 0.00 | 73 | 1008.6 |
| 20260506233000 | 70 | 263 | 2.0 | 10.0 | 0.00 | 0.00 | 0.00 | 73 | 1008.6 |
| 20260506231500 | 71 | 9 | 2.0 | 12.0 | 0.00 | 0.00 | 0.00 | 72 | 1008.5 |
| 20260506225959 | 71 | 263 | 2.0 | 8.0 | 0.00 | 0.00 | 0.00 | 72 | 1008.5 |
| 20260506225458 | 71 | 281 | 3.0 | 11.0 | 0.00 | 0.00 | 0.00 | 71 | 1008.6 |
| 20260506224959 | 72 | 268 | 3.0 | 11.0 | 0.00 | 0.00 | 0.00 | 71 | 1008.6 |
| 20260506224459 | 72 | 245 | 4.0 | 13.0 | 0.00 | 0.00 | 0.00 | 70 | 1008.6 |
| 20260506223959 | 72 | 5 | 3.0 | 13.0 | 0.00 | 0.00 | 0.00 | 71 | 1008.6 |
| 20260506223459 | 72 | 263 | 3.0 | 13.0 | 0.00 | 0.00 | 0.00 | 71 | 1008.5 |
| 20260506223000 | 72 | 279 | 3.0 | 13.0 | 0.00 | 0.00 | 0.00 | 71 | 1008.5 |
| 20260506221500 | 72 | 227 | 4.0 | 12.0 | 0.00 | 0.00 | 0.00 | 70 | 1008.6 |
| 20260506221001 | 72 | 220 | 5.0 | 12.0 | 0.00 | 0.00 | 0.00 | 70 | 1008.5 |
| 20260506220459 | 72 | 229 | 4.0 | 13.0 | 0.00 | 0.00 | 0.00 | 70 | 1008.3 |
| 20260506220004 | 72 | 268 | 4.0 | 11.0 | 0.00 | 0.00 | 0.00 | 69 | 1008.3 |
| 20260506215458 | 72 | 243 | 4.0 | 12.0 | 0.00 | 0.00 | 0.00 | 70 | 1008.4 |
| 20260506215000 | 72 | 242 | 5.0 | 14.0 | 0.00 | 0.00 | 0.00 | 69 | 1008.4 |
| 20260506214459 | 72 | 270 | 5.0 | 14.0 | 0.00 | 0.00 | 0.00 | 70 | 1008.3 |
| 20260506214000 | 72 | 261 | 5.0 | 12.0 | 0.00 | 0.00 | 0.00 | 70 | 1008.2 |
| 20260506213458 | 72 | 204 | 5.0 | 14.0 | 0.00 | 0.00 | 0.00 | 70 | 1008.2 |
| 20260506212959 | 72 | 251 | 4.0 | 14.0 | 0.00 | 0.00 | 0.00 | 70 | 1008.3 |
| 20260506212459 | 72 | 214 | 4.0 | 12.0 | 0.00 | 0.00 | 0.00 | 70 | 1008.2 |
| 20260506212000 | 72 | 212 | 5.0 | 13.0 | 0.00 | 0.00 | 0.00 | 71 | 1008.1 |
| 20260506211459 | 72 | 13 | 6.0 | 19.0 | 0.00 | 0.00 | 0.00 | 70 | 1008.3 |
| 20260506211000 | 72 | 196 | 6.0 | 19.0 | 0.00 | 0.00 | 0.00 | 70 | 1008.2 |
| 20260506210458 | 72 | 219 | 5.0 | 15.0 | 0.00 | 0.00 | 0.00 | 71 | 1008.0 |
| 20260506210004 | 72 | 235 | 5.0 | 15.0 | 0.00 | 0.00 | 0.00 | 70 | 1008.1 |
| 20260506205500 | 72 | 292 | 5.0 | 12.0 | 0.00 | 0.00 | 0.00 | 70 | 1008.2 |
| 20260506204959 | 72 | 207 | 5.0 | 12.0 | 0.00 | 0.00 | 0.00 | 70 | 1008.3 |
| 20260506204458 | 72 | 267 | 4.0 | 14.0 | 0.00 | 0.00 | 0.00 | 71 | 1008.1 |
| 20260506203959 | 72 | 220 | 4.0 | 13.0 | 0.00 | 0.00 | 0.00 | 70 | 1008.1 |
| 20260506202459 | 72 | 273 | 5.0 | 16.0 | 0.00 | 0.00 | 0.00 | 70 | 1007.8 |
| 20260506201959 | 72 | 241 | 5.0 | 16.0 | 0.00 | 0.00 | 0.00 | 69 | 1008.0 |
| 20260506201459 | 73 | 226 | 5.0 | 15.0 | 0.00 | 0.00 | 0.00 | 69 | 1008.0 |
| 20260506200959 | 73 | 245 | 5.0 | 15.0 | 0.00 | 0.00 | 0.00 | 69 | 1008.3 |
| 20260506200007 | 73 | 250 | 6.0 | 15.0 | 0.00 | 0.00 | 0.00 | 70 | 1008.5 |
| 20260506195503 | 72 | 182 | 6.0 | 15.0 | 0.00 | 0.00 | 0.00 | 70 | 1008.9 |
| 20260506195005 | 73 | 269 | 6.0 | 14.0 | 0.00 | 0.00 | 0.00 | 69 | 1008.8 |
| 20260506194505 | 73 | 274 | 5.0 | 12.0 | 0.00 | 0.00 | 0.00 | 69 | 1008.6 |
| 20260506194005 | 73 | 269 | 4.0 | 16.0 | 0.00 | 0.00 | 0.00 | 68 | 1008.5 |
| 20260506193504 | 73 | 327 | 5.0 | 16.0 | 0.00 | 0.00 | 0.00 | 68 | 1008.3 |
| 20260506193005 | 73 | 216 | 6.0 | 16.0 | 0.00 | 0.00 | 0.00 | 68 | 1008.3 |
| 20260506192505 | 73 | 237 | 6.0 | 18.0 | 0.00 | 0.00 | 0.00 | 69 | 1008.4 |
| 20260506192005 | 73 | 238 | 6.0 | 21.0 | 0.00 | 0.00 | 0.00 | 70 | 1008.6 |
| 20260506191505 | 73 | 209 | 5.0 | 21.0 | 0.00 | 0.00 | 0.00 | 68 | 1008.9 |
| 20260506191005 | 73 | 170 | 6.0 | 17.0 | 0.00 | 0.00 | 0.00 | 68 | 1009.1 |
| 20260506190504 | 73 | 9 | 6.0 | 17.0 | 0.00 | 0.00 | 0.00 | 71 | 1009.1 |
| 20260506190005 | 73 | 269 | 6.0 | 17.0 | 0.00 | 0.00 | 0.00 | 70 | 1009.1 |
| 20260506185503 | 72 | 194 | 6.0 | 17.0 | 0.00 | 0.00 | 0.00 | 70 | 1009.2 |
| 20260506185005 | 72 | 270 | 5.0 | 17.0 | 0.00 | 0.00 | 0.00 | 70 | 1009.4 |
| 20260506184504 | 72 | 199 | 6.0 | 17.0 | 0.00 | 0.00 | 0.00 | 70 | 1009.3 |
| 20260506183503 | 72 | 250 | 4.0 | 12.0 | 0.00 | 0.00 | 0.00 | 72 | 1009.3 |
| 20260506183005 | 71 | 194 | 6.0 | 18.0 | 0.00 | 0.00 | 0.00 | 73 | 1009.3 |
| 20260506182005 | 70 | 279 | 4.0 | 13.0 | 0.00 | 0.00 | 0.00 | 74 | 1009.6 |
| 20260506181503 | 70 | 169 | 4.0 | 11.0 | 0.00 | 0.00 | 0.00 | 75 | 1009.9 |
| 20260506181004 | 70 | 274 | 4.0 | 10.0 | 0.00 | 0.00 | 0.00 | 74 | 1009.7 |
| 20260506180503 | 70 | 234 | 4.0 | 11.0 | 0.00 | 0.00 | 0.00 | 75 | 1009.7 |
| 20260506175504 | 70 | 264 | 4.0 | 10.0 | 0.00 | 0.00 | 0.00 | 75 | 1009.9 |
| 20260506175005 | 70 | 24 | 4.0 | 10.0 | 0.00 | 0.00 | 0.00 | 76 | 1009.9 |
| 20260506174504 | 69 | 239 | 5.0 | 16.0 | 0.00 | 0.00 | 0.00 | 76 | 1009.7 |
| 20260506174005 | 69 | 236 | 6.0 | 16.0 | 0.00 | 0.00 | 0.00 | 75 | 1009.6 |
| 20260506173005 | 70 | 237 | 6.0 | 21.0 | 0.00 | 0.00 | 0.00 | 75 | 1009.6 |
| 20260506172504 | 70 | 309 | 5.0 | 14.0 | 0.00 | 0.00 | 0.00 | 74 | 1009.8 |
| 20260506172006 | 70 | 263 | 5.0 | 11.0 | 0.00 | 0.00 | 0.00 | 75 | 1009.9 |
| 20260506171505 | 70 | 15 | 5.0 | 12.0 | 0.00 | 0.00 | 0.00 | 75 | 1010.2 |
| 20260506171005 | 70 | 223 | 6.0 | 17.0 | 0.00 | 0.00 | 0.00 | 74 | 1010.0 |
| 20260506170506 | 70 | 250 | 5.0 | 17.0 | 0.00 | 0.00 | 0.00 | 73 | 1010.0 |
| 20260506165504 | 69 | 285 | 5.0 | 17.0 | 0.00 | 0.00 | 0.00 | 74 | 1010.3 |
| 20260506165005 | 68 | 267 | 5.0 | 11.0 | 0.00 | 0.00 | 0.00 | 73 | 1010.5 |
| 20260506164005 | 69 | 174 | 5.0 | 13.0 | 0.00 | 0.00 | 0.00 | 73 | 1010.9 |
| 20260506163502 | 70 | 221 | 5.0 | 14.0 | 0.00 | 0.00 | 0.00 | 73 | 1010.9 |
| 20260506163004 | 71 | 342 | 4.0 | 13.0 | 0.00 | 0.00 | 0.00 | 70 | 1011.1 |
| 20260506162004 | 73 | 229 | 5.0 | 18.0 | 0.00 | 0.00 | 0.00 | 67 | 1011.1 |
| 20260506161004 | 73 | 285 | 6.0 | 15.0 | 0.00 | 0.00 | 0.00 | 64 | 1011.1 |
| 20260506160503 | 74 | 242 | 6.0 | 15.0 | 0.00 | 0.00 | 0.00 | 63 | 1011.0 |
| 20260506155004 | 76 | 289 | 5.0 | 18.0 | 0.00 | 0.00 | 0.00 | 63 | 1011.2 |
| 20260506154503 | 75 | 257 | 5.0 | 18.0 | 0.00 | 0.00 | 0.00 | 63 | 1011.1 |
| 20260506154003 | 75 | 200 | 6.0 | 13.0 | 0.00 | 0.00 | 0.00 | 63 | 1011.1 |
| 20260506153503 | 75 | 271 | 6.0 | 14.0 | 0.00 | 0.00 | 0.00 | 62 | 1011.1 |
| 20260506153005 | 75 | 306 | 6.0 | 16.0 | 0.00 | 0.00 | 0.00 | 62 | 1011.3 |
| 20260506152503 | 75 | 270 | 5.0 | 16.0 | 0.00 | 0.00 | 0.00 | 62 | 1011.2 |
| 20260506152004 | 75 | 171 | 5.0 | 12.0 | 0.00 | 0.00 | 0.00 | 63 | 1011.2 |
| 20260506151503 | 74 | 248 | 5.0 | 11.0 | 0.00 | 0.00 | 0.00 | 65 | 1011.3 |
| 20260506151004 | 74 | 236 | 5.0 | 18.0 | 0.00 | 0.00 | 0.00 | 65 | 1011.2 |
| 20260506150504 | 74 | 261 | 5.0 | 14.0 | 0.00 | 0.00 | 0.00 | 64 | 1011.3 |
| 20260506145503 | 74 | 253 | 5.0 | 17.0 | 0.00 | 0.00 | 0.00 | 64 | 1011.2 |
| 20260506145004 | 74 | 246 | 6.0 | 17.0 | 0.00 | 0.00 | 0.00 | 64 | 1011.2 |
| 20260506144503 | 74 | 165 | 6.0 | 19.0 | 0.00 | 0.00 | 0.00 | 61 | 1011.2 |
| 20260506144005 | 76 | 313 | 6.0 | 16.0 | 0.00 | 0.00 | 0.00 | 64 | 1011.2 |
| 20260506143005 | 74 | 166 | 6.0 | 15.0 | 0.00 | 0.00 | 0.00 | 63 | 1011.3 |
| 20260506142504 | 75 | 190 | 7.0 | 16.0 | 0.00 | 0.00 | 0.00 | 63 | 1011.4 |
| 20260506141502 | 73 | 233 | 8.0 | 26.0 | 0.00 | 0.00 | 0.00 | 63 | 1011.4 |
| 20260506141005 | 74 | 279 | 7.0 | 25.0 | 0.00 | 0.00 | 0.00 | 62 | 1011.2 |
| 20260506140506 | 76 | 257 | 5.0 | 13.0 | 0.00 | 0.00 | 0.00 | 60 | 1011.7 |
| 20260506140007 | 75 | 272 | 6.0 | 15.0 | 0.00 | 0.00 | 0.00 | 64 | 1011.4 |
| 20260506135504 | 74 | 201 | 7.0 | 16.0 | 0.00 | 0.00 | 0.00 | 64 | 1011.1 |
| 20260506135004 | 73 | 264 | 6.0 | 17.0 | 0.00 | 0.00 | 0.00 | 64 | 1011.3 |
| 20260506134504 | 73 | 209 | 5.0 | 17.0 | 0.00 | 0.00 | 0.00 | 63 | 1011.5 |
| 20260506134004 | 75 | 266 | 5.0 | 15.0 | 0.00 | 0.00 | 0.00 | 65 | 1011.5 |
| 20260506133503 | 73 | 303 | 7.0 | 18.0 | 0.00 | 0.00 | 0.00 | 65 | 1011.5 |
| 20260506132503 | 72 | 196 | 5.0 | 17.0 | 0.00 | 0.00 | 0.00 | 65 | 1011.6 |
| 20260506132005 | 72 | 234 | 5.0 | 17.0 | 0.00 | 0.00 | 0.00 | 66 | 1011.6 |
| 20260506131503 | 71 | 67 | 5.0 | 17.0 | 0.00 | 0.00 | 0.00 | 66 | 1011.7 |
| 20260506131005 | 72 | 310 | 5.0 | 17.0 | 0.00 | 0.00 | 0.00 | 67 | 1011.6 |
| 20260506130503 | 72 | 239 | 5.0 | 15.0 | 0.00 | 0.00 | 0.00 | 66 | 1011.7 |
| 20260506130006 | 71 | 24 | 5.0 | 12.0 | 0.00 | 0.00 | 0.00 | 67 | 1011.9 |
| 20260506125502 | 70 | 213 | 5.0 | 15.0 | 0.00 | 0.00 | 0.00 | 68 | 1012.0 |
| 20260506125002 | 69 | 256 | 5.0 | 26.0 | 0.00 | 0.00 | 0.00 | 68 | 1011.9 |
| 20260506124502 | 69 | 224 | 5.0 | 26.0 | 0.00 | 0.00 | 0.00 | 68 | 1011.9 |
| 20260506124004 | 69 | 231 | 5.0 | 12.0 | 0.00 | 0.00 | 0.00 | 68 | 1011.9 |
| 20260506123503 | 69 | 178 | 4.0 | 12.0 | 0.00 | 0.00 | 0.00 | 69 | 1012.0 |
| 20260506123003 | 69 | 238 | 4.0 | 13.0 | 0.00 | 0.00 | 0.00 | 68 | 1011.8 |
| 20260506122502 | 69 | 246 | 5.0 | 13.0 | 0.00 | 0.00 | 0.00 | 68 | 1011.9 |
| 20260506122004 | 69 | 271 | 5.0 | 22.0 | 0.00 | 0.00 | 0.00 | 68 | 1011.9 |
| 20260506121501 | 69 | 279 | 5.0 | 22.0 | 0.00 | 0.00 | 0.00 | 68 | 1011.8 |
| 20260506121002 | 70 | 215 | 5.0 | 18.0 | 0.00 | 0.00 | 0.00 | 67 | 1011.8 |
| 20260506120502 | 69 | 175 | 4.0 | 14.0 | 0.00 | 0.00 | 0.00 | 68 | 1011.8 |
| 20260506120006 | 68 | 328 | 4.0 | 10.0 | 0.00 | 0.00 | 0.00 | 68 | 1011.8 |
| 20260506115502 | 68 | 237 | 4.0 | 10.0 | 0.00 | 0.00 | 0.00 | 69 | 1011.8 |
| 20260506115004 | 67 | 169 | 3.0 | 16.0 | 0.00 | 0.00 | 0.00 | 70 | 1011.7 |
| 20260506114502 | 66 | 334 | 4.0 | 16.0 | 0.00 | 0.00 | 0.00 | 72 | 1011.8 |
| 20260506114003 | 66 | 261 | 4.0 | 13.0 | 0.00 | 0.00 | 0.00 | 70 | 1011.9 |
| 20260506113502 | 66 | 237 | 4.0 | 13.0 | 0.00 | 0.00 | 0.00 | 71 | 1011.8 |
| 20260506113004 | 66 | 201 | 4.0 | 15.0 | 0.00 | 0.00 | 0.00 | 71 | 1011.8 |
| 20260506112503 | 66 | 297 | 5.0 | 15.0 | 0.00 | 0.00 | 0.00 | 71 | 1011.7 |
| 20260506112002 | 66 | 334 | 5.0 | 16.0 | 0.00 | 0.00 | 0.00 | 71 | 1011.7 |
| 20260506111502 | 66 | 196 | 4.0 | 16.0 | 0.00 | 0.00 | 0.00 | 71 | 1011.6 |
| 20260506111004 | 66 | 229 | 4.0 | 9.0 | 0.00 | 0.00 | 0.00 | 72 | 1011.8 |
| 20260506110503 | 65 | 148 | 4.0 | 11.0 | 0.00 | 0.00 | 0.00 | 72 | 1011.8 |
| 20260506110004 | 65 | 263 | 4.0 | 11.0 | 0.00 | 0.00 | 0.00 | 73 | 1011.6 |
| 20260506105501 | 64 | 208 | 3.0 | 13.0 | 0.00 | 0.00 | 0.00 | 73 | 1011.7 |
| 20260506105003 | 64 | 232 | 3.0 | 13.0 | 0.00 | 0.00 | 0.00 | 74 | 1011.8 |
| 20260506104502 | 64 | 97 | 3.0 | 11.0 | 0.00 | 0.00 | 0.00 | 73 | 1011.8 |
| 20260506102501 | 64 | 217 | 3.0 | 15.0 | 0.00 | 0.00 | 0.00 | 73 | 1011.9 |
| 20260506102003 | 64 | 263 | 3.0 | 9.0 | 0.00 | 0.00 | 0.00 | 73 | 1011.9 |
| 20260506101503 | 64 | 221 | 4.0 | 11.0 | 0.00 | 0.00 | 0.00 | 73 | 1011.9 |
| 20260506101002 | 64 | 195 | 3.0 | 13.0 | 0.00 | 0.00 | 0.00 | 73 | 1011.9 |
| 20260506100504 | 64 | 225 | 3.0 | 9.0 | 0.00 | 0.00 | 0.00 | 73 | 1011.8 |
| 20260506095503 | 64 | 263 | 4.0 | 13.0 | 0.00 | 0.00 | 0.00 | 73 | 1011.6 |
| 20260506095003 | 64 | 237 | 3.0 | 13.0 | 0.00 | 0.00 | 0.00 | 73 | 1011.6 |
| 20260506094502 | 63 | 226 | 3.0 | 10.0 | 0.00 | 0.00 | 0.00 | 73 | 1011.6 |
| 20260506094002 | 64 | 271 | 3.0 | 9.0 | 0.00 | 0.00 | 0.00 | 73 | 1011.8 |
| 20260506093501 | 64 | 225 | 3.0 | 9.0 | 0.00 | 0.00 | 0.00 | 73 | 1011.8 |
| 20260506093004 | 63 | 205 | 3.0 | 8.0 | 0.00 | 0.00 | 0.00 | 73 | 1011.8 |
| 20260506092501 | 64 | 206 | 3.0 | 6.0 | 0.00 | 0.00 | 0.00 | 72 | 1011.7 |
| 20260506092003 | 63 | 266 | 3.0 | 7.0 | 0.00 | 0.00 | 0.00 | 72 | 1011.7 |
| 20260506091502 | 64 | 235 | 2.0 | 7.0 | 0.00 | 0.00 | 0.00 | 72 | 1011.7 |
| 20260506090501 | 64 | 242 | 3.0 | 9.0 | 0.00 | 0.00 | 0.00 | 71 | 1011.7 |
| 20260506090006 | 64 | 230 | 3.0 | 9.0 | 0.00 | 0.00 | 0.00 | 71 | 1011.7 |
| 20260506085501 | 64 | 165 | 3.0 | 9.0 | 0.00 | 0.00 | 0.00 | 72 | 1011.7 |
| 20260506085002 | 64 | 273 | 3.0 | 7.0 | 0.00 | 0.00 | 0.00 | 71 | 1011.8 |
| 20260506084501 | 64 | 221 | 3.0 | 7.0 | 0.00 | 0.00 | 0.00 | 71 | 1011.9 |